Theta_e
313 313 313 312 311 312 312 311 309 309 309 309 308 307 307 306 306 306 305 305 305 305 305 304 303 302 300 299 299 299 298 297 296 296 296 296 295 295 294 294 294 294 294 294 293 293 293 293 293 294 293 292 292 291 291 290 290 290 291 292 291 291 291 291 290 289 288 288 289
313 312 311 309 309 311 311 310 309 308 309 310 309 308 307 307 306 306 305 305 305 305 304 304 302 300 299 298 298 299 298 297 296 296 296 296 295 295 294 295 295 295 294 294 293 294 294 293 294 294 293 292 292 291 290 289 290 290 291 291 291 291 291 291 291 290 289 288 288
313 313 312 312 312 312 312 311 310 309 309 309 309 308 308 307 307 306 306 305 304 304 304 303 302 301 299 298 299 299 299 298 297 297 297 296 295 295 295 296 295 294 294 294 294 294 294 293 294 294 294 293 292 292 291 289 290 291 292 291 291 291 291 292 291 290 289 289 288
313 313 313 312 312 312 312 312 311 310 309 310 309 308 308 307 307 306 306 304 303 303 303 304 303 301 300 299 299 299 299 298 297 297 297 297 296 296 296 296 295 295 294 294 294 294 294 293 294 294 294 293 292 292 292 291 291 292 292 292 292 292 292 292 290 290 289 289 288
313 313 313 313 312 312 312 312 311 310 310 310 309 308 308 307 307 306 305 304 304 304 304 303 303 302 301 300 299 299 299 298 297 298 298 298 297 296 296 296 296 295 295 294 293 293 293 293 295 295 294 294 294 294 293 292 292 292 293 292 292 292 292 291 291 290 290 289 288
313 314 314 314 313 312 312 312 311 310 310 310 309 309 308 308 308 307 306 305 305 304 303 302 302 301 300 300 299 299 299 299 298 299 299 298 298 297 296 296 296 296 295 294 293 293 294 294 295 295 294 294 294 293 293 293 293 293 293 292 292 292 292 291 291 290 290 289 289
314 314 314 314 313 312 312 312 311 310 310 310 309 308 308 308 308 307 306 306 305 304 302 301 301 301 301 300 300 300 300 300 299 299 299 299 298 297 297 297 296 296 295 295 294 294 295 295 296 295 294 293 294 294 293 294 294 293 293 292 292 292 291 291 291 291 290 290 290
314 314 313 313 313 313 312 312 311 310 310 310 309 309 308 308 308 307 306 306 305 304 303 302 302 302 301 301 300 300 300 300 300 299 299 299 298 297 297 297 297 296 296 296 295 295 296 296 296 296 295 295 295 294 294 294 294 294 293 293 292 292 291 291 291 292 292 292 291
313 313 313 313 313 313 313 312 311 311 310 310 310 309 309 308 308 307 307 306 305 304 303 303 302 301 301 301 301 300 300 300 300 299 299 299 298 298 297 297 297 296 296 295 295 295 295 296 296 296 296 296 297 296 295 295 295 294 294 294 293 293 292 291 292 292 292 292 292
313 313 313 313 313 313 313 312 312 311 311 310 310 309 308 307 307 308 308 307 305 304 303 303 302 301 301 301 301 301 300 300 300 300 299 299 298 298 298 298 297 296 296 296 295 295 296 297 297 297 297 298 298 296 295 295 295 295 295 295 294 293 292 292 292 292 292 292 292
313 313 313 314 313 313 312 312 312 311 311 311 310 310 309 307 308 308 308 307 306 305 303 304 302 302 301 301 301 301 301 301 301 300 300 299 299 299 298 298 298 298 297 297 296 297 297 298 298 298 298 299 298 297 296 296 296 295 295 295 294 293 293 292 292 292 292 292 292
313 313 313 313 313 313 313 313 313 312 311 311 311 310 310 310 309 308 307 307 306 305 304 304 303 302 302 302 301 301 301 301 301 300 300 300 299 299 299 298 298 298 298 298 298 298 298 298 299 298 298 299 299 298 297 296 296 295 295 295 294 293 293 292 292 292 293 292 292
313 313 313 313 313 313 313 313 313 313 312 312 311 311 311 310 309 309 308 307 307 306 306 304 303 302 302 302 302 302 301 301 301 300 300 300 300 300 299 299 299 299 299 299 299 299 299 299 299 299 299 298 298 298 297 296 296 295 295 295 294 294 293 293 293 293 293 292 291
313 313 313 313 313 313 313 313 313 313 313 312 312 312 311 311 310 309 308 308 308 307 307 305 304 303 303 303 302 302 301 301 301 300 300 300 300 300 300 300 300 300 300 300 300 300 299 300 300 299 299 298 297 297 297 296 296 296 295 295 294 294 294 294 293 293 292 292 291
313 313 313 313 313 313 313 313 314 313 313 313 313 312 312 312 310 309 309 309 308 308 307 306 305 304 303 303 302 302 301 301 301 300 300 300 300 300 301 301 301 301 300 301 300 300 299 299 300 299 299 298 297 297 297 297 297 297 296 296 295 295 295 294 294 293 293 292 292
313 313 313 313 313 313 313 313 314 314 314 313 313 313 313 313 312 310 309 309 309 309 308 307 306 305 304 302 302 302 301 301 301 300 300 300 300 300 300 301 300 300 300 300 300 300 299 299 300 299 299 298 298 298 298 297 298 298 297 297 296 296 296 295 294 294 294 293 293
313 313 313 313 312 312 313 313 313 314 314 313 313 313 313 313 312 311 309 309 310 309 308 308 307 306 304 303 302 302 301 301 301 301 300 300 300 300 300 300 300 300 300 300 300 300 299 300 300 300 299 299 299 299 298 298 298 298 298 297 297 296 296 296 295 295 294 294 294
313 313 313 313 313 313 313 313 313 313 313 313 313 313 313 313 313 312 310 309 310 309 309 308 307 306 305 304 303 302 302 302 301 301 301 301 301 300 300 300 300 300 300 300 300 300 300 300 300 300 300 300 299 299 299 298 298 298 298 297 297 297 297 296 296 295 295 295 295
313 313 313 313 313 313 313 312 313 313 313 313 313 314 313 313 313 312 311 310 310 309 309 308 308 307 306 304 304 303 302 302 302 301 301 301 301 301 300 300 301 301 301 301 301 301 301 300 300 300 300 299 299 299 298 298 297 297 297 297 297 297 297 296 296 296 296 296 295
313 313 313 313 313 313 313 313 313 313 314 314 313 313 313 313 313 312 312 311 310 310 309 309 308 307 306 305 304 303 303 303 302 302 301 301 301 300 301 301 301 301 302 301 301 301 301 300 300 299 299 299 298 298 298 297 297 297 297 296 296 296 296 296 295 296 296 296 296
313 313 314 314 314 314 314 314 314 314 314 314 313 313 313 313 313 313 312 312 311 310 309 309 308 307 306 305 305 304 304 304 303 303 302 302 302 302 302 303 302 302 302 302 301 301 301 300 300 299 299 299 298 298 297 297 297 296 296 296 296 295 295 295 295 296 296 296 296
313 314 314 314 314 314 314 314 314 314 314 314 314 314 313 313 313 313 313 312 311 310 309 309 309 308 307 306 305 305 305 305 305 305 305 305 306 305 305 304 303 302 301 301 301 301 300 300 299 299 299 299 299 298 297 297 296 296 296 295 295 295 295 295 296 296 296 297 297
314 315 315 315 315 314 314 314 314 314 314 314 314 314 314 314 313 313 313 312 311 310 310 309 309 308 308 307 307 307 307 306 307 307 308 308 309 307 306 304 303 301 300 300 300 300 300 300 299 299 298 299 298 298 297 296 296 296 296 295 295 295 295 296 296 296 297 297 297
315 315 315 315 315 314 314 314 314 314 314 314 314 314 314 314 314 313 313 312 312 311 310 310 309 309 309 310 310 309 308 307 308 309 309 309 308 307 305 303 302 301 301 301 301 300 300 300 299 298 298 298 298 298 297 297 297 296 296 296 295 296 296 296 297 297 297 297 297
315 315 314 315 314 314 314 314 313 313 314 314 314 314 314 314 314 314 313 312 312 311 311 310 309 310 311 311 311 310 308 308 308 308 308 309 309 307 304 303 302 302 302 301 298 298 297 297 299 299 299 299 298 298 298 297 297 297 296 296 296 296 296 297 297 297 297 296 296
316 315 314 314 313 313 313 313 314 314 314 314 314 314 314 314 314 314 314 313 313 312 311 310 310 310 311 313 312 311 310 309 309 309 309 309 308 306 305 304 303 303 302 299 296 296 296 296 296 297 298 299 298 298 297 297 296 297 296 296 296 297 296 296 296 296 295 295 295
315 315 314 313 312 313 313 313 314 314 314 314 314 314 314 314 314 315 314 313 313 312 311 310 310 308 307 310 311 311 311 312 311 310 308 307 307 306 305 304 302 302 301 298 295 295 295 296 296 296 296 299 299 298 297 297 296 296 296 297 297 297 297 297 296 296 295 294 293
314 314 314 313 313 313 313 313 313 314 314 314 314 314 314 313 313 313 313 313 312 312 311 310 309 307 306 307 308 309 310 310 309 308 307 306 306 305 304 303 302 301 299 296 295 295 295 296 296 296 295 296 298 298 298 297 297 297 297 297 297 297 297 297 297 296 296 295 294
314 314 314 313 314 314 313 313 313 314 314 314 314 313 313 312 312 312 312 311 311 311 310 309 307 307 306 305 305 306 305 305 304 304 305 305 305 305 304 303 302 300 297 295 295 296 296 296 296 295 295 296 298 299 299 298 297 297 298 297 297 297 297 297 296 296 296 295 294
315 315 314 314 314 314 314 314 314 313 313 312 312 311 312 311 311 311 311 311 311 310 308 307 305 305 305 304 304 304 304 303 302 303 303 304 304 303 302 302 302 300 297 294 295 296 296 296 296 295 295 295 296 298 299 299 299 298 298 298 297 297 297 296 296 296 295 295 294
315 315 314 314 314 314 314 314 313 312 312 310 310 310 310 311 311 311 311 311 310 308 306 306 305 304 303 303 303 304 304 303 303 303 303 303 302 302 302 303 302 300 297 295 295 296 296 296 295 295 294 294 296 298 299 299 299 298 298 298 297 296 296 296 295 295 295 294 294
316 315 315 315 315 315 314 314 313 312 311 309 308 309 310 311 311 310 310 309 308 307 307 306 305 304 304 304 303 303 303 303 304 303 303 303 303 303 303 303 303 300 297 294 295 295 295 295 295 294 294 293 295 297 299 299 299 298 298 297 296 296 295 295 295 294 294 293 293
317 317 317 317 317 316 315 313 313 312 311 308 308 308 309 311 310 309 308 307 307 307 307 306 305 305 305 304 304 304 303 303 303 302 301 302 303 303 303 302 302 299 296 294 295 295 295 295 295 294 293 293 295 297 298 298 298 298 297 297 296 295 295 295 295 294 293 292 291
317 318 318 318 317 316 315 313 311 310 308 306 306 307 308 309 308 307 306 306 306 307 307 307 306 306 306 306 305 304 303 302 302 302 303 303 303 303 302 302 302 299 295 294 294 294 294 294 294 294 293 292 295 297 298 298 297 297 296 295 295 294 293 292 292 291 289 288 287
317 317 317 316 315 314 312 310 309 308 306 305 305 305 306 307 306 306 305 305 306 307 307 307 307 308 308 307 307 306 305 303 303 303 303 302 302 301 301 301 301 298 294 293 293 294 294 294 294 293 293 293 295 297 297 297 296 296 295 294 292 290 288 287 286 286 285 285 285
316 316 315 313 311 310 310 308 308 307 305 304 305 306 306 306 306 306 306 305 306 307 308 308 308 308 308 308 308 308 307 306 305 304 303 302 301 301 301 301 300 297 293 293 293 293 294 294 293 293 293 295 296 297 296 296 295 294 293 292 289 287 285 284 283 283 282 282 282
315 314 312 310 309 308 308 307 307 306 305 305 306 306 306 306 306 307 307 307 308 308 308 308 308 308 309 309 309 309 308 307 305 303 302 301 301 301 301 300 299 296 293 292 293 293 293 293 293 293 294 296 296 296 295 295 294 292 291 289 286 284 283 282 281 281 280 280 281
314 312 310 309 308 307 306 306 305 305 305 306 306 306 307 307 308 308 308 308 309 309 308 308 308 309 310 310 309 307 306 305 303 302 301 301 301 301 300 299 298 295 293 292 292 293 293 293 293 293 294 295 295 295 295 294 292 290 288 286 284 282 281 281 280 280 281 281 282
312 310 309 308 308 307 306 306 305 305 306 306 307 307 308 308 308 308 308 308 310 310 309 309 308 308 308 306 305 304 303 302 302 301 301 301 300 299 298 298 296 294 293 292 292 292 293 293 293 293 293 294 295 295 294 292 290 287 285 284 283 282 281 281 281 282 283 284 285
311 310 309 308 308 307 307 307 306 306 307 307 307 308 308 307 306 305 305 306 308 309 309 308 307 306 304 301 302 302 301 301 301 300 300 299 298 296 295 295 295 293 292 292 292 293 293 293 293 293 293 292 293 293 292 290 287 285 283 283 283 282 282 282 282 283 284 284 285
310 309 309 308 308 308 308 307 307 307 307 307 307 307 306 305 304 304 304 304 305 306 306 305 304 302 300 299 300 300 300 299 298 298 297 296 296 295 294 294 293 292 291 291 292 292 292 292 292 292 291 290 290 290 290 288 285 283 282 282 282 282 282 282 282 283 283 282 282
Wind_Speed
9 8 8 7 7 7 7 6 5 6 6 7 7 7 7 7 8 7 7 6 7 7 7 7 7 6 6 7 9 10 9 8 8 8 8 8 7 6 6 6 7 7 8 8 8 7 7 7 6 5 4 4 5 4 4 3 5 5 5 5 5 5 6 7 7 7 6 5 4
10 9 8 8 7 7 6 6 5 5 6 6 7 7 7 7 7 7 7 7 7 6 6 5 6 6 7 8 9 9 9 9 8 8 8 8 7 7 7 7 7 8 8 9 8 8 7 7 6 5 4 4 4 4 4 4 5 6 6 7 5 5 6 7 7 7 7 6 4
10 10 9 8 8 8 7 7 7 7 7 7 6 7 7 7 6 7 7 7 6 6 5 5 5 7 8 8 8 9 9 9 9 8 8 8 7 7 7 7 7 8 8 8 8 8 7 8 7 6 5 5 5 5 5 4 5 6 7 7 5 5 5 5 6 6 5 5 5
10 10 10 10 11 11 10 9 9 9 9 7 6 6 6 6 6 6 6 6 6 6 6 6 6 7 8 8 8 9 9 9 9 9 9 8 8 9 9 8 8 8 8 8 9 8 8 8 6 6 5 6 7 6 5 5 5 5 5 6 5 4 5 4 4 4 4 4 4
11 11 11 11 12 12 11 10 10 9 8 7 7 6 7 6 6 5 5 6 6 7 7 7 7 7 7 8 9 10 10 10 10 10 9 9 9 9 9 10 10 9 9 9 9 9 9 8 6 5 5 6 6 6 6 6 6 5 4 3 3 4 4 4 4 4 3 3 3
12 12 12 11 12 11 10 9 10 9 8 7 8 8 8 7 7 7 7 8 8 8 8 7 7 6 7 8 9 10 10 10 10 10 10 11 10 10 10 10 10 10 9 8 9 9 9 9 6 5 4 5 5 4 5 7 6 5 4 3 3 3 4 4 4 4 4 4 4
12 12 12 12 12 11 10 9 9 8 8 8 9 10 11 10 10 10 10 9 8 7 7 7 7 7 8 9 9 10 10 10 11 11 11 11 10 10 10 10 10 10 9 9 8 8 8 8 6 5 5 4 4 4 5 6 6 5 5 4 3 3 4 5 4 4 5 7 7
11 11 12 12 11 11 11 10 9 9 9 9 10 12 13 12 12 11 10 8 7 7 7 7 8 9 9 10 10 10 11 11 11 11 11 11 11 11 10 10 10 9 9 9 9 8 8 7 6 5 5 4 4 4 6 7 7 7 6 6 4 4 4 4 5 5 6 8 8
10 11 11 11 11 11 11 11 10 10 10 10 12 12 13 12 12 12 10 9 8 8 8 8 9 10 10 10 11 11 11 11 11 11 11 10 11 11 10 9 9 9 9 8 8 9 8 6 6 5 5 5 5 5 7 8 8 8 8 7 6 5 5 5 6 7 8 8 9
11 11 11 11 11 11 11 11 11 11 11 12 12 12 12 12 12 11 10 9 7 7 8 9 9 10 10 11 11 11 11 11 11 11 11 11 11 11 11 10 10 9 9 8 8 8 8 7 7 6 6 6 7 8 9 10 10 11 10 7 7 7 7 6 7 8 8 8 9
12 12 12 11 12 11 11 11 11 11 11 12 12 12 11 11 11 11 9 7 7 8 9 10 10 11 11 11 11 11 11 10 10 10 11 11 11 11 11 11 11 11 10 9 9 8 8 8 9 9 9 8 9 10 11 13 13 13 12 8 8 9 9 8 8 8 8 8 8
13 12 12 12 12 11 11 11 11 11 11 12 12 12 11 11 11 10 9 8 9 10 10 10 11 11 11 11 11 11 11 11 11 11 11 12 12 12 12 11 11 12 12 11 10 9 9 10 11 12 12 12 11 11 13 15 15 14 13 11 10 10 10 10 9 7 7 7 8
13 12 12 12 12 12 12 12 12 12 12 13 12 12 11 11 11 10 10 10 11 10 10 10 11 11 11 11 11 11 11 11 11 11 11 12 12 12 12 12 12 13 13 12 12 11 11 12 14 15 15 15 12 12 12 14 14 13 13 12 11 11 11 11 10 8 7 7 8
13 12 12 12 12 12 12 13 12 12 13 13 13 12 11 11 10 10 10 11 11 10 10 9 9 10 11 11 11 11 11 11 12 12 12 12 12 13 13 13 14 14 14 13 13 13 14 14 15 15 15 15 13 11 10 11 12 12 12 12 12 12 12 11 10 9 9 9 8
14 13 13 13 13 13 13 13 12 12 13 14 13 12 11 10 10 10 10 11 11 11 10 9 9 10 11 12 12 12 12 12 12 12 13 13 13 14 14 14 15 15 14 14 14 14 15 15 14 14 13 13 12 11 9 10 10 10 11 11 12 12 12 11 11 10 10 10 9
15 14 14 14 14 14 14 14 12 12 13 13 13 12 11 11 10 10 11 12 11 10 10 10 10 10 10 11 12 12 12 12 12 13 13 14 14 14 15 15 15 15 15 15 14 14 14 14 12 12 12 12 11 10 10 11 11 11 11 12 12 13 12 12 12 11 11 11 10
16 16 15 15 15 15 15 14 13 13 13 13 13 12 12 11 10 10 11 12 11 11 11 12 11 10 10 10 11 11 11 12 13 13 14 14 15 15 15 16 15 15 15 15 14 13 12 11 10 9 10 10 10 10 11 11 11 11 12 12 12 13 13 12 12 12 11 11 11
17 17 17 16 17 17 17 16 15 14 14 14 13 13 12 12 11 11 11 12 12 13 13 13 12 11 11 11 11 11 11 12 13 14 15 15 15 15 15 15 15 14 14 13 12 11 11 10 9 9 9 9 9 9 10 10 10 11 11 11 12 12 12 11 11 11 11 11 11
17 18 18 18 18 18 18 17 17 16 15 14 13 13 12 12 12 12 12 12 13 14 14 14 13 12 12 12 12 12 12 13 14 15 15 14 14 14 13 13 13 12 11 11 10 10 10 10 10 10 9 9 9 8 8 9 9 9 10 10 10 10 10 10 10 10 10 11 11
18 18 19 19 19 19 18 18 17 16 15 14 13 13 13 13 13 13 13 13 14 14 14 14 13 13 13 13 13 13 13 12 13 14 13 12 11 11 11 10 10 9 9 9 10 10 10 11 11 11 11 10 10 10 9 9 9 9 10 9 9 9 9 9 9 9 10 10 11
19 19 19 19 19 19 18 18 17 16 15 14 14 14 13 13 14 14 14 14 13 13 13 14 14 14 14 13 13 13 12 10 10 10 9 8 8 8 8 8 8 8 8 9 10 11 11 11 11 11 11 12 12 11 11 10 10 10 10 9 9 9 9 9 9 9 10 10 11
19 19 19 19 18 18 18 17 16 16 15 15 14 14 14 13 14 14 14 13 13 13 13 14 14 14 14 13 12 11 10 8 8 7 7 6 7 8 8 7 7 8 9 10 10 10 10 10 10 11 11 11 12 12 12 11 11 10 10 9 9 9 9 9 9 9 10 10 10
19 19 18 17 17 17 16 16 15 15 15 15 15 14 14 13 13 13 13 12 12 12 13 13 13 13 12 10 9 8 8 8 7 7 8 8 9 9 8 7 8 10 10 10 10 10 9 8 8 9 10 10 11 12 12 11 11 10 10 10 9 9 9 8 8 9 9 10 10
18 17 15 13 14 14 14 13 13 13 13 14 14 14 14 13 13 12 12 12 12 12 12 11 11 10 9 8 8 9 9 9 9 9 10 9 9 9 8 7 8 9 9 8 9 9 8 7 6 7 8 9 10 10 10 11 10 10 10 10 9 9 8 8 8 9 10 10 9
16 14 12 11 11 11 11 11 11 12 12 12 12 12 12 13 12 12 11 12 12 12 12 11 9 8 7 8 10 10 10 9 10 10 10 10 10 9 7 7 7 8 7 7 9 10 10 8 7 6 7 8 8 8 8 9 10 10 10 10 9 8 8 8 9 9 10 10 9
14 13 11 10 9 10 10 11 11 11 11 11 11 11 11 12 12 12 12 12 12 12 11 10 9 8 8 9 10 10 9 9 9 10 11 11 11 9 8 8 8 7 7 8 11 12 12 11 9 8 7 7 8 8 7 8 9 9 10 9 9 9 9 9 10 10 9 8 8
12 11 10 8 8 9 9 10 10 10 10 10 10 10 11 11 11 11 12 12 11 10 9 8 7 6 6 7 9 9 9 8 10 11 12 12 10 10 9 9 8 7 7 10 14 15 15 14 13 12 11 9 9 8 8 8 8 9 9 9 9 9 10 11 11 10 9 8 7
9 9 9 8 8 8 9 9 9 10 11 11 11 10 10 9 9 10 10 10 9 7 6 5 4 4 3 3 4 6 7 9 9 10 10 10 9 9 9 8 7 6 8 13 16 17 17 17 17 16 14 11 10 9 8 8 8 8 8 8 8 9 10 11 10 10 9 8 7
10 10 10 9 9 9 9 9 10 11 11 11 11 10 9 8 9 9 9 8 6 5 4 4 4 3 3 3 2 1 2 4 5 6 7 7 8 8 8 7 7 7 10 15 17 18 19 19 19 18 16 14 10 8 7 7 7 7 7 7 8 9 9 10 9 9 8 8 7
12 12 11 11 10 10 10 10 11 11 10 9 9 8 8 8 9 9 8 7 6 5 4 4 4 5 5 6 5 4 3 1 0 2 4 6 6 7 7 7 7 8 10 15 17 18 19 19 19 18 17 15 11 8 6 6 7 7 7 7 8 9 9 9 9 9 8 7 7
12 12 11 9 9 10 11 12 12 11 9 8 7 8 9 9 9 8 7 6 6 6 6 6 7 7 6 6 6 6 5 5 4 2 2 4 5 6 6 7 8 9 10 15 16 17 18 18 18 17 17 16 11 9 7 7 7 7 7 8 9 9 9 9 9 9 9 8 7
12 12 10 8 10 13 15 14 13 12 10 9 9 9 10 10 9 7 7 7 7 7 8 7 8 8 7 6 6 7 7 7 5 3 2 3 5 6 7 8 8 9 11 15 16 16 17 17 17 17 17 17 13 10 9 8 8 8 7 8 9 9 9 8 8 8 8 8 7
13 13 12 11 15 18 18 15 13 11 10 9 9 9 10 10 8 7 7 7 7 8 9 9 9 9 8 6 5 6 8 8 6 4 4 5 7 8 8 8 8 8 10 15 16 16 16 16 16 16 17 17 13 10 9 9 8 7 6 7 8 9 9 8 7 6 6 5 4
16 15 15 15 17 17 15 10 8 8 8 8 7 7 8 9 8 8 7 6 7 7 8 9 9 8 7 5 5 6 7 8 8 8 8 8 9 9 9 9 7 8 10 15 16 16 16 16 16 17 17 16 12 9 8 9 7 7 6 7 6 6 5 5 4 4 3 3 3
17 16 16 15 12 9 6 5 7 9 9 8 7 7 8 9 10 9 8 7 7 7 7 7 7 7 6 6 7 8 9 10 11 11 11 10 10 10 9 9 7 8 10 14 15 16 16 16 17 17 16 14 10 8 8 8 7 7 7 6 5 4 3 3 3 3 3 4 4
16 15 13 9 5 3 5 7 9 10 10 9 9 8 9 9 9 9 8 7 7 7 8 8 7 7 7 7 8 9 10 13 13 13 12 11 10 10 9 8 7 8 10 13 15 16 16 16 16 16 15 12 8 7 6 7 6 6 6 5 4 4 4 4 3 3 3 3 4
13 11 8 5 5 7 8 9 10 11 11 10 10 10 9 10 9 8 7 6 7 8 8 8 8 9 10 11 10 10 11 11 11 11 10 9 9 9 8 7 6 7 8 11 13 14 15 15 16 15 14 10 7 6 5 5 4 4 4 4 4 4 4 4 3 4 4 4 4
9 6 5 6 8 9 10 10 11 12 12 11 10 9 9 9 8 7 6 5 7 7 8 8 10 12 13 14 12 11 9 8 9 9 9 8 8 8 7 6 5 5 6 8 10 12 13 14 15 14 13 8 7 6 5 4 4 4 4 4 4 5 5 4 4 4 5 6 7
7 7 8 10 11 11 12 12 13 13 12 11 10 10 9 8 6 5 5 6 7 8 9 10 11 12 12 11 9 8 8 8 8 8 8 8 7 6 6 5 4 4 4 6 8 10 11 12 13 12 10 7 6 5 4 4 4 4 4 4 5 5 5 4 4 5 6 8 11
8 10 11 12 12 13 13 14 13 13 12 12 11 11 9 8 6 5 5 5 7 8 10 10 10 8 6 6 7 7 7 7 6 6 6 6 5 5 5 6 5 5 5 6 7 8 8 9 9 8 6 5 4 4 4 4 4 5 5 5 5 5 5 5 5 5 6 8 10
10 12 13 13 14 14 14 14 13 12 11 12 12 11 9 8 7 6 5 5 6 7 7 6 6 5 5 5 6 7 7 7 6 5 5 6 6 6 6 7 7 7 7 7 8 7 7 6 6 5 5 4 4 4 4 4 5 5 5 5 5 5 5 5 5 5 5 5 6
Wind_Direction
167 170 173 173 174 176 179 180 180 181 181 181 185 187 188 189 191 194 195 196 198 199 199 198 196 194 189 181 180 185 190 192 185 181 180 182 179 175 169 167 167 166 165 164 163 165 168 170 168 168 170 173 171 169 164 157 155 157 162 166 163 160 161 166 173 176 178 181 173
172 174 175 174 175 177 179 180 181 183 185 185 187 189 190 191 194 195 196 199 200 199 197 196 190 186 183 179 178 180 183 186 181 178 177 178 176 171 168 168 170 171 169 167 166 168 170 170 168 168 168 168 163 162 161 157 154 156 161 169 168 165 167 174 179 179 177 175 164
175 176 177 178 179 181 183 184 185 187 188 189 189 190 192 194 196 197 198 199 199 197 195 195 189 184 180 177 177 178 180 182 179 177 177 179 175 173 171 173 174 174 174 172 173 173 172 171 172 171 170 169 168 166 165 162 159 160 165 173 171 171 174 182 181 176 171 166 158
178 179 181 184 185 186 187 188 187 188 189 189 188 190 193 196 198 199 198 196 194 195 197 195 190 184 180 177 177 179 180 181 179 179 179 181 179 178 177 176 177 179 179 177 177 175 173 172 173 174 172 171 172 173 171 166 166 168 171 175 171 172 176 181 174 169 164 161 156
184 185 187 189 190 190 191 190 187 187 189 189 188 191 195 198 199 198 196 195 198 200 199 195 190 186 183 178 178 179 181 181 181 182 184 185 184 183 182 179 181 182 182 179 179 176 173 172 175 177 176 175 179 178 172 162 166 169 170 167 170 173 172 167 161 158 156 151 147
190 191 192 193 193 194 194 192 187 186 188 190 191 194 198 199 198 198 198 200 200 199 196 192 189 185 182 179 180 182 183 184 186 187 188 188 187 186 185 185 185 184 181 179 178 175 173 174 176 178 178 179 180 172 161 157 162 163 162 162 172 169 163 159 157 154 151 146 145
193 194 194 195 194 195 196 195 188 186 188 192 195 198 200 201 200 200 201 201 197 194 192 192 191 187 183 182 185 187 188 188 191 192 192 192 189 188 188 190 188 185 181 177 176 176 176 177 178 177 175 174 170 161 156 159 163 163 163 168 173 169 162 160 157 155 155 154 154
197 197 197 196 195 196 197 196 190 188 190 196 200 202 203 203 202 201 200 199 196 194 192 193 193 190 187 186 189 192 193 192 194 195 195 194 191 190 190 190 188 187 183 177 176 177 179 181 180 175 170 170 165 161 161 165 167 169 171 176 176 173 169 164 162 162 162 161 162
200 201 200 199 197 197 197 197 193 192 195 200 204 204 204 204 203 202 200 201 198 195 192 194 195 192 189 189 192 194 195 195 195 197 197 196 192 190 189 189 188 189 186 176 175 176 178 181 182 176 170 171 168 167 168 169 172 176 180 181 178 177 174 169 167 167 167 165 165
200 202 201 201 200 199 198 199 198 198 199 204 206 206 205 205 205 204 203 202 197 194 194 196 194 193 192 193 195 196 197 197 197 197 197 198 195 192 190 189 189 189 186 178 175 175 178 182 183 179 174 173 172 173 173 176 180 185 187 185 179 176 176 176 172 171 170 169 168
201 201 201 202 201 199 198 200 202 203 205 208 208 207 207 206 207 207 205 201 196 196 198 198 194 193 195 197 197 198 198 198 197 197 197 199 198 195 193 191 190 189 188 182 177 177 182 188 187 184 180 179 178 179 181 184 187 189 190 186 179 177 177 180 178 175 173 171 169
202 201 202 203 201 199 199 202 205 207 209 211 211 210 208 208 208 207 205 201 200 201 201 198 195 195 197 199 199 198 198 198 198 197 198 199 199 197 195 193 191 191 190 186 181 182 188 193 192 188 185 185 186 187 188 189 190 190 188 183 180 180 180 182 181 180 176 170 169
204 202 202 203 202 201 201 205 208 210 212 213 213 211 210 210 208 206 204 204 205 205 203 199 197 198 200 201 200 198 198 199 198 198 199 200 199 198 196 195 193 194 193 191 186 187 193 199 197 194 191 190 193 193 192 190 190 189 187 182 183 184 184 182 182 179 174 169 170
206 204 203 203 202 202 204 207 210 212 213 214 214 213 212 211 208 205 205 207 209 208 205 200 200 201 202 202 200 199 198 198 198 199 200 200 199 199 198 198 196 196 196 196 192 192 196 202 202 199 196 194 197 196 192 188 189 190 188 185 186 187 187 183 180 177 174 171 172
208 207 205 203 203 205 207 209 212 214 215 215 215 213 212 211 207 206 206 210 211 210 206 203 204 205 205 203 201 199 198 198 198 199 200 201 200 200 200 201 199 199 199 200 197 197 199 203 203 201 198 197 197 194 189 188 191 193 192 190 191 191 189 184 180 178 176 175 174
210 209 207 205 206 207 209 210 213 215 215 216 215 213 212 212 208 206 207 210 211 211 209 207 207 206 205 204 202 200 198 199 199 200 201 202 202 202 202 203 201 201 200 201 200 200 200 202 201 200 198 197 195 191 189 191 194 196 196 195 194 194 191 186 182 181 180 178 177
210 210 209 208 208 210 211 212 213 215 216 216 214 212 211 212 209 207 206 208 210 211 211 211 209 206 204 204 202 200 199 200 201 202 203 204 203 203 203 204 203 202 201 201 202 201 200 199 199 199 198 196 194 193 194 195 197 198 198 198 198 197 195 189 186 184 183 181 182
210 211 210 210 211 212 212 213 214 215 216 215 214 212 211 211 210 208 207 207 208 210 211 212 210 207 204 203 202 202 201 203 204 205 206 206 205 204 204 205 204 203 202 202 202 200 197 195 196 197 197 196 195 196 197 199 202 203 203 202 202 201 199 194 189 186 184 184 187
210 211 211 212 212 213 214 214 215 215 216 215 214 212 211 210 210 209 209 208 208 209 210 211 210 208 206 203 203 203 205 206 207 208 208 208 206 206 206 206 205 204 202 200 199 197 195 193 193 194 194 195 195 197 199 202 206 208 209 208 208 206 203 197 192 189 187 187 191
210 211 212 213 213 214 215 215 215 216 216 216 215 213 212 210 209 210 210 209 208 208 209 210 210 209 208 206 205 206 207 209 209 210 210 208 207 207 208 209 208 205 201 198 197 196 195 193 191 190 191 191 192 194 197 200 205 210 212 213 211 209 205 199 195 191 190 190 193
211 211 212 213 214 215 216 216 216 216 217 217 216 214 213 211 210 210 211 210 207 206 208 210 211 210 210 208 207 209 211 214 214 214 214 214 216 218 218 215 210 205 201 199 197 195 194 192 190 190 190 189 190 192 193 195 201 205 209 210 210 208 204 199 194 192 191 192 194
211 212 212 213 214 216 216 217 217 217 217 217 217 216 214 212 212 212 212 210 206 205 207 210 211 211 211 209 210 213 219 227 227 227 227 230 234 233 229 217 208 204 203 200 197 194 192 191 190 191 192 192 193 193 193 193 197 201 204 206 205 204 201 196 192 190 190 192 194
212 212 212 213 214 215 216 216 216 216 217 218 218 217 216 215 214 212 211 209 207 206 207 210 211 212 212 212 217 224 230 234 236 238 239 239 240 237 230 213 205 203 203 200 194 189 186 186 189 193 196 197 198 196 195 193 195 197 200 202 201 200 197 194 190 189 190 193 194
212 211 210 211 211 212 213 213 213 214 216 217 217 217 217 216 215 213 210 209 208 208 208 209 209 210 213 222 229 230 228 226 230 234 237 238 239 235 225 208 204 202 201 196 186 177 171 172 185 195 201 204 203 201 197 194 194 195 197 197 196 195 194 193 191 191 192 195 196
212 210 208 207 207 207 208 209 210 212 214 215 215 215 216 216 215 212 210 209 209 209 208 208 205 205 210 222 226 224 220 217 221 226 231 236 235 228 215 202 202 201 199 191 174 162 157 159 174 191 204 210 209 206 201 196 195 195 194 192 191 191 192 195 196 197 198 199 200
211 210 209 206 203 203 204 206 208 210 212 214 214 214 215 215 214 212 210 210 210 208 206 204 201 200 203 211 216 217 216 216 222 229 233 233 225 214 202 197 198 197 191 179 162 155 153 158 170 184 200 211 210 207 204 202 198 195 192 189 188 189 193 198 202 204 205 204 203
209 209 209 206 202 202 204 206 207 209 211 212 212 212 212 212 212 211 210 210 208 205 200 196 194 191 193 200 209 215 220 224 229 231 232 229 220 209 200 197 196 191 178 163 154 153 157 166 175 185 195 206 208 207 205 204 199 194 191 188 189 192 196 201 203 204 206 207 205
203 205 205 203 203 204 206 205 206 208 210 211 210 210 209 207 208 208 208 206 200 194 187 180 166 155 155 178 210 225 231 232 229 227 225 223 216 206 198 196 191 181 165 155 153 158 165 175 182 188 193 199 204 206 205 201 197 193 191 190 192 196 200 203 203 202 202 203 202
196 198 199 201 204 207 207 205 206 208 209 209 208 206 203 200 200 200 198 192 181 170 159 145 120 106 100 98 74 341 269 242 224 215 211 209 204 197 191 185 178 167 158 155 159 166 174 182 187 191 194 195 199 202 202 199 196 194 194 193 195 198 201 204 203 201 199 199 197
193 193 194 198 204 208 209 209 208 207 206 204 200 196 191 188 189 187 182 171 157 144 131 119 106 102 101 100 89 75 56 17 174 186 188 190 188 185 181 176 171 166 163 163 169 175 181 186 190 193 195 195 196 198 199 199 197 195 195 195 196 197 199 200 199 198 197 197 196
188 184 184 191 204 213 214 212 208 203 196 187 180 175 174 174 175 172 165 151 137 127 120 113 109 106 104 102 102 98 90 70 58 70 137 167 172 175 176 175 173 172 172 173 178 182 186 189 191 193 194 193 192 194 197 199 199 198 197 195 195 195 195 196 195 195 195 195 196
183 179 181 201 223 225 219 210 204 195 183 167 163 162 163 163 160 152 141 131 126 123 120 115 112 109 107 106 110 109 105 95 83 84 139 168 173 177 181 183 182 179 178 181 184 187 189 191 193 193 193 191 190 191 193 195 198 199 197 193 192 192 192 193 195 195 196 195 196
188 187 194 212 226 226 220 207 196 183 168 153 153 155 154 151 140 129 121 119 121 121 120 116 115 114 115 118 120 118 117 117 127 149 180 187 185 185 186 189 188 183 181 184 187 189 190 191 193 194 193 192 191 191 190 189 192 193 193 191 190 190 190 191 192 193 191 190 187
194 197 204 215 223 225 219 199 174 149 135 128 133 136 135 129 120 114 112 112 115 116 116 115 117 121 128 140 145 144 142 144 157 173 187 194 192 191 191 193 191 183 180 184 187 189 190 191 192 193 193 191 191 190 188 184 184 184 185 186 184 182 180 178 174 166 158 152 147
198 201 208 218 224 224 207 149 118 106 101 104 104 106 109 110 111 113 115 117 117 115 114 116 123 134 151 172 179 177 174 174 179 184 189 192 193 193 194 195 191 182 179 184 187 189 190 191 192 191 189 188 189 187 184 180 178 176 175 174 165 151 131 117 113 116 123 130 132
200 203 207 211 200 154 119 112 106 102 99 101 101 102 104 107 112 118 123 123 119 117 118 124 139 158 177 195 201 200 196 194 192 190 189 188 188 190 193 196 192 184 181 186 188 190 190 191 190 187 184 183 184 182 178 174 172 167 161 150 126 100 84 81 81 84 91 103 111
202 200 194 166 125 109 106 108 108 108 108 109 110 112 113 116 121 127 130 124 117 119 128 145 165 179 191 203 210 210 207 200 192 188 185 182 183 187 191 195 192 187 185 188 190 190 189 188 184 179 177 177 177 174 168 163 156 145 131 113 88 69 58 56 55 55 59 66 79
194 176 143 118 109 105 104 107 110 113 115 117 119 121 123 126 131 135 135 124 122 133 150 172 185 193 198 203 206 205 198 185 179 177 178 181 184 186 187 188 185 180 180 184 186 185 183 179 175 172 171 172 170 164 157 148 133 116 101 88 74 61 52 49 49 55 63 73 85
157 128 111 107 108 109 110 111 115 119 122 126 127 128 129 131 134 136 135 128 139 156 174 191 200 202 201 195 189 179 170 165 167 170 173 179 180 176 169 164 153 144 148 162 169 170 170 168 167 167 166 162 159 154 145 132 115 100 91 86 81 71 63 59 64 70 77 84 91
126 117 112 111 114 116 117 118 122 126 131 134 134 134 134 132 131 130 131 134 155 172 186 198 201 198 186 166 155 150 148 148 150 153 155 155 147 138 132 129 116 106 105 121 137 146 152 155 157 156 151 141 140 136 128 118 104 96 91 90 91 86 79 72 75 78 81 84 88
113 113 114 115 118 120 122 124 129 133 137 137 138 138 137 136 135 138 146 160 176 183 186 185 171 153 135 130 131 128 123 114 102 96 96 98 98 99 101 104 98 88 78 75 84 93 102 110 111 110 107 107 114 115 112 110 103 99 96 96 98 99 97 90 84 82 81 79 77